Location: Las Navas
(40.6024°N, 4.3345°W)
Time: 08:52:36
(UTC+00:00)

MetOp-B - Pass Details

Date: 03 April 2020
Orbit: 819 x 822 km, 98.7° (Epoch: 30 May)

Event Time Altitude Azimuth Distance (km) Brightness Sun altitude
Exits shadow 20:57:25 59° 86° (E) 947 4.1 -24.4°
Maximum altitude 20:57:40 60° 72° (ENE) 941 4.2 -24.4°
Drops below altitude 10° 21:02:56 10° 354° (N) 2,428 7.1 -25.3°
Sets 21:05:19 0° 351° (N) 3,364 7.9 -25.6°
